When you browse on this site, cookies collect data to enhance your experience and personalize the content and advertising you see.
Visit our Privacy Policy to learn more. By continuing to use the site, you agree to this use of cookies and data.
  • In Austria
  • List of Countries
  • For 7 days
  • Water Temperature
  • Weather Map
  • News
  • Weather Widgets
  • user-avatar
    Login

    Hourly Weather Susa

    Today, 12 December, Thursday

    Time Temperature Precipitation Wind Pressure Humidity
    00:00 +10°C° 0 mm 0 mps 556 mmHg 96%
    01:00 +9°C° 0 mm 0 mps 556 mmHg 96%
    02:00 +9°C° 0 mm 0 mps 556 mmHg 96%
    03:00 +9°C° 0 mm 0 mps 556 mmHg 96%
    04:00 +9°C° 0 mm 0 mps 556 mmHg 96%
    05:00 +9°C° 0 mm 0 mps 556 mmHg 95%
    06:00 +10°C° 0 mm 0 mps 557 mmHg 95%
    07:00 +11°C° 0 mm 0 mps 557 mmHg 95%
    08:00 +12°C° 0.1 mm 0 mps 558 mmHg 89%
    09:00 +15°C° 0.1 mm 1 mps 559 mmHg 83%
    10:00 +18°C° 0.1 mm 1 mps 561 mmHg 78%
    11:00 +18°C° 0.5 mm 1 mps 560 mmHg 77%
    12:00 +18°C° 0.5 mm 1 mps 559 mmHg 77%
    13:00 +18°C° 0.5 mm 2 mps 559 mmHg 76%
    14:00 +17°C° 0.6 mm 2 mps 558 mmHg 80%
    15:00 +16°C° 0.6 mm 2 mps 557 mmHg 83%
    16:00 +16°C° 0.6 mm 2 mps 557 mmHg 86%
    17:00 +14°C° 0.2 mm 1 mps 556 mmHg 90%
    18:00 +12°C° 0.2 mm 1 mps 556 mmHg 93%
    19:00 +10°C° 0.2 mm 0 mps 555 mmHg 96%
    20:00 +10°C° 0 mm 1 mps 556 mmHg 96%
    21:00 +10°C° 0 mm 1 mps 556 mmHg 95%
    22:00 +10°C° 0 mm 1 mps 556 mmHg 94%
    23:00 +10°C° 0 mm 1 mps 556 mmHg 93%

    Tomorrow, 13 December, Friday

    Time Temperature Precipitation Wind Pressure Humidity
    00:00 +9°C° 0 mm 1 mps 556 mmHg 93%
    01:00 +9°C° 0 mm 1 mps 555 mmHg 92%
    02:00 +9°C° 0 mm 1 mps 555 mmHg 92%
    03:00 +8°C° 0 mm 0 mps 555 mmHg 91%
    04:00 +8°C° 0 mm 0 mps 555 mmHg 91%
    05:00 +9°C° 0 mm 0 mps 555 mmHg 89%
    06:00 +10°C° 0 mm 0 mps 556 mmHg 87%
    07:00 +10°C° 0 mm 0 mps 557 mmHg 85%
    08:00 +14°C° 0 mm 1 mps 558 mmHg 77%
    09:00 +16°C° 0 mm 1 mps 560 mmHg 68%
    10:00 +20°C° 0 mm 1 mps 561 mmHg 60%
    11:00 +20°C° 0.3 mm 1 mps 561 mmHg 65%
    12:00 +19°C° 0.3 mm 1 mps 560 mmHg 69%
    13:00 +19°C° 0.3 mm 1 mps 559 mmHg 74%
    14:00 +18°C° 0.9 mm 1 mps 558 mmHg 80%
    15:00 +16°C° 0.9 mm 1 mps 557 mmHg 86%
    16:00 +15°C° 0.9 mm 1 mps 556 mmHg 91%
    17:00 +14°C° 0.4 mm 1 mps 556 mmHg 93%
    18:00 +12°C° 0.4 mm 0 mps 556 mmHg 96%
    19:00 +11°C° 0.4 mm 0 mps 556 mmHg 98%
    20:00 +10°C° 0.1 mm 0 mps 556 mmHg 97%
    21:00 +10°C° 0.1 mm 0 mps 557 mmHg 97%
    22:00 +9°C° 0.1 mm 0 mps 557 mmHg 96%
    23:00 +10°C° 0 mm 0 mps 557 mmHg 96%

    Day after tomorrow, 14 December, Saturday

    Time Temperature Precipitation Wind Pressure Humidity
    00:00 +10°C° 0 mm 0 mps 557 mmHg 96%
    01:00 +10°C° 0 mm 0 mps 556 mmHg 95%
    02:00 +10°C° 1 mm 0 mps 556 mmHg 96%
    03:00 +10°C° 1 mm 0 mps 556 mmHg 96%
    04:00 +10°C° 1 mm 0 mps 556 mmHg 97%
    05:00 +10°C° 0.4 mm 0 mps 557 mmHg 97%
    06:00 +11°C° 0.4 mm 0 mps 557 mmHg 96%
    07:00 +11°C° 0.4 mm 0 mps 558 mmHg 96%
    08:00 +12°C° 0.1 mm 0 mps 558 mmHg 91%
    09:00 +13°C° 0.1 mm 0 mps 559 mmHg 86%
    10:00 +15°C° 0.1 mm 0 mps 560 mmHg 81%
    11:00 +15°C° 0.3 mm 0 mps 560 mmHg 81%
    12:00 +16°C° 0.3 mm 1 mps 559 mmHg 81%
    13:00 +16°C° 0.3 mm 1 mps 559 mmHg 80%
    14:00 +16°C° 0.7 mm 1 mps 558 mmHg 84%
    15:00 +16°C° 0.7 mm 1 mps 558 mmHg 87%
    16:00 +15°C° 0.7 mm 1 mps 557 mmHg 90%
    17:00 +13°C° 0.6 mm 0 mps 557 mmHg 92%
    18:00 +12°C° 0.6 mm 0 mps 557 mmHg 95%
    19:00 +11°C° 0.6 mm 0 mps 557 mmHg 98%
    20:00 +11°C° 0.3 mm 0 mps 557 mmHg 97%
    21:00 +11°C° 0.3 mm 0 mps 558 mmHg 97%
    22:00 +11°C° 0.3 mm 0 mps 558 mmHg 97%
    23:00 +11°C° 0.2 mm 0 mps 558 mmHg 97%

    15 December, Sunday

    Time Temperature Precipitation Wind Pressure Humidity
    00:00 +10°C° 0.2 mm 0 mps 557 mmHg 97%
    01:00 +10°C° 0.2 mm 0 mps 557 mmHg 97%
    02:00 +10°C° 0 mm 0 mps 557 mmHg 97%
    03:00 +9°C° 0 mm 0 mps 556 mmHg 97%
    04:00 +9°C° 0 mm 0 mps 556 mmHg 97%
    05:00 +10°C° 0 mm 0 mps 557 mmHg 96%
    06:00 +10°C° 0 mm 0 mps 558 mmHg 95%
    07:00 +11°C° 0 mm 0 mps 558 mmHg 94%
    08:00 +13°C° 0.2 mm 0 mps 559 mmHg 88%
    09:00 +15°C° 0.2 mm 1 mps 560 mmHg 82%
    10:00 +18°C° 0.2 mm 1 mps 562 mmHg 76%
    11:00 +18°C° 1 mm 1 mps 561 mmHg 81%
    12:00 +16°C° 1 mm 1 mps 560 mmHg 85%
    13:00 +16°C° 1 mm 1 mps 559 mmHg 89%
    14:00 +16°C° 1.3 mm 1 mps 558 mmHg 91%
    15:00 +15°C° 1.3 mm 1 mps 558 mmHg 92%
    16:00 +14°C° 1.3 mm 0 mps 557 mmHg 94%
    17:00 +13°C° 0.6 mm 0 mps 557 mmHg 95%
    18:00 +12°C° 0.6 mm 0 mps 557 mmHg 96%
    19:00 +12°C° 0.6 mm 0 mps 557 mmHg 98%
    20:00 +11°C° 0.3 mm 0 mps 558 mmHg 98%
    21:00 +11°C° 0.3 mm 0 mps 558 mmHg 97%
    22:00 +11°C° 0.3 mm 0 mps 558 mmHg 97%
    23:00 +10°C° 0.1 mm 0 mps 558 mmHg 97%

    16 December, Monday

    Time Temperature Precipitation Wind Pressure Humidity
    00:00 +10°C° 0.1 mm 0 mps 557 mmHg 97%
    01:00 +10°C° 0.1 mm 0 mps 557 mmHg 97%
    02:00 +10°C° 0 mm 0 mps 557 mmHg 97%
    03:00 +10°C° 0 mm 0 mps 556 mmHg 97%
    04:00 +10°C° 0 mm 0 mps 556 mmHg 97%
    05:00 +10°C° 0 mm 0 mps 557 mmHg 96%
    06:00 +10°C° 0 mm 0 mps 558 mmHg 95%
    07:00 +12°C° 0 mm 1 mps 558 mmHg 95%
    08:00 +14°C° 0.1 mm 1 mps 559 mmHg 88%
    09:00 +16°C° 0.1 mm 1 mps 560 mmHg 82%
    10:00 +19°C° 0.1 mm 1 mps 561 mmHg 76%
    11:00 +18°C° 0.9 mm 1 mps 560 mmHg 79%
    12:00 +18°C° 0.9 mm 1 mps 560 mmHg 82%
    13:00 +18°C° 0.9 mm 1 mps 559 mmHg 85%
    14:00 +18°C° 1.3 mm 1 mps 558 mmHg 87%
    15:00 +16°C° 1.3 mm 1 mps 557 mmHg 90%
    16:00 +15°C° 1.3 mm 0 mps 557 mmHg 92%
    17:00 +14°C° 0.7 mm 0 mps 557 mmHg 94%
    18:00 +12°C° 0.7 mm 0 mps 556 mmHg 96%
    19:00 +11°C° 0.7 mm 0 mps 556 mmHg 98%
    20:00 +11°C° 0.6 mm 0 mps 557 mmHg 98%
    21:00 +11°C° 0.6 mm 0 mps 557 mmHg 98%
    22:00 +11°C° 0.6 mm 0 mps 557 mmHg 97%
    23:00 +11°C° 0.4 mm 0 mps 557 mmHg 97%

    17 December, Tuesday

    Time Temperature Precipitation Wind Pressure Humidity
    00:00 +11°C° 0.4 mm 0 mps 557 mmHg 97%
    01:00 +12°C° 0.4 mm 1 mps 557 mmHg 97%
    02:00 +12°C° 0.6 mm 1 mps 556 mmHg 97%
    03:00 +12°C° 0.6 mm 1 mps 556 mmHg 97%
    04:00 +11°C° 0.6 mm 1 mps 556 mmHg 97%
    05:00 +11°C° 0.2 mm 1 mps 556 mmHg 96%
    06:00 +12°C° 0.2 mm 1 mps 557 mmHg 96%
    07:00 +12°C° 0.2 mm 1 mps 557 mmHg 95%
    08:00 +14°C° 0 mm 1 mps 558 mmHg 86%
    09:00 +16°C° 0 mm 1 mps 560 mmHg 78%
    10:00 +20°C° 0 mm 1 mps 561 mmHg 69%
    11:00 +19°C° 0.7 mm 1 mps 560 mmHg 72%
    12:00 +19°C° 0.7 mm 1 mps 559 mmHg 75%
    13:00 +19°C° 0.7 mm 1 mps 558 mmHg 79%
    14:00 +18°C° 0.9 mm 1 mps 557 mmHg 81%
    15:00 +18°C° 0.9 mm 1 mps 557 mmHg 84%
    16:00 +16°C° 0.9 mm 1 mps 556 mmHg 86%
    17:00 +15°C° 0.8 mm 1 mps 556 mmHg 90%
    18:00 +14°C° 0.8 mm 1 mps 556 mmHg 94%
    19:00 +12°C° 0.8 mm 0 mps 556 mmHg 97%
    20:00 +12°C° 0.6 mm 1 mps 556 mmHg 97%
    21:00 +12°C° 0.6 mm 1 mps 556 mmHg 97%
    22:00 +12°C° 0.6 mm 1 mps 557 mmHg 97%
    23:00 +12°C° 1.6 mm 1 mps 557 mmHg 97%
    Show more